Voltar ao catálogo

STARLINK-30171

AtivoComunicaçõesVLEO
NORAD 57469·PAYLOAD·🇺🇸 United States

Lançado Jul 28, 2023 de Cape Canaveral Space Force Station

Loading…

Próximas Passagens (próximas 24 horas)

TLE

AtualizadoSource: CelesTrak SupGP

Época: Sep 15, 2026, 01:52 UTC

1 57469C 23107N   26258.07826389 -.00001669  00000+0 -60447-4 0  2586
2 57469  43.0026 349.8858 0001408 255.5540  58.7813 15.27575770    11

Acompanhe STARLINK-30171 em tempo real com AllMySat

Download on the App Store